Regional Weather Roundup
Issued by NWS Nashville, TN

Home | Current Version | Previous Version | Text Only | Print | Product List | Glossary On
Versions: 1 2 3 4 5 6 7 8 9 10 11 12 13 14 15 16 17 18 19 20 21 22 23 24 25 26 27
000
ASUS44 KOHX 242310
RWROHX
MIDDLE TENNESSEE HOURLY WEATHER ROUNDUP
NATIONAL WEATHER SERVICE NASHVILLE TN
600 PM CDT TUE MAY 24 2016

NOTE: "FAIR" INDICATES FEW OR NO CLOUDS BELOW 12,000 FEET WITH
NO SIGNIFICANT WEATHER AND/OR OBSTRUCTIONS TO VISIBILITY.

* THESE REPORTS ARE NOT UNDER NWS QUALITY CONTROL AND MAY NOT
  REPORT WEATHER SUCH AS PRECIPITATION AND FOG.


TNZ005>011-023>034-057-059-062>066-078-080-250000
...NORTHERN MIDDLE TENNESSEE...

CITY           SKY/WX    TMP DP  RH WIND       PRES   REMARKS
CLARKSVILLE    SUNNY     81  57  43 SW7       30.06R
CROSSVILLE     SUNNY     78  50  37 N5        30.14F
DICKSON        SUNNY     81  57  44 SW5       30.08R
LEBANON        MOSUNNY   85  54  34 CALM      30.06S
NASHVILLE      MOSUNNY   85  51  31 SW3       30.07S
SMYRNA         SUNNY     85  54  34 SW5       30.07F
SPARTA         SUNNY     84  54  34 SW5       30.09S
$$
TNZ056-058-060-061-075>077-079-093>097-250000
...SOUTHERN MIDDLE TENNESSEE...

CITY           SKY/WX    TMP DP  RH WIND       PRES   REMARKS
COLUMBIA       SUNNY     84  61  45 S5        30.06R
FAYETTEVILLE   SUNNY     82  52  34 SW7       30.09S
LEWISBURG      SUNNY     83  54  36 SW5       30.07S
MCMINNVILLE    SUNNY     82  54  36 CALM      30.10S
SHELBYVILLE    SUNNY     84  54  34 S7        30.09S
TULLAHOMA      SUNNY     81  46  30 S7        30.10F
WINCHESTER     SUNNY     84  52  32 S7        30.09S
$$


...KEY TO REMARKS...
VSB - VISIBILITY IN MILES
WCI - WIND CHILL INDEX
HX  - HEAT INDEX





USA.gov is the U.S. government's official web portal to all federal, state and local government web resources and services.